TimeCDT,TemperatureF,Dew PointF,Humidity,Sea Level PressureIn,VisibilityMPH,Wind Direction,Wind SpeedMPH,Gust SpeedMPH,PrecipitationIn,Events,Conditions,WindDirDegrees,DateUTC
12:53 AM,60.1,55.9,86,29.99,10.0,Calm,Calm,-,N/A,,Clear,0,2012-11-02 05:53:00
1:53 AM,62.1,57.0,84,29.99,10.0,SSW,5.8,-,N/A,,Clear,210,2012-11-02 06:53:00
2:53 AM,62.1,57.0,84,29.99,10.0,SW,3.5,-,N/A,,Clear,230,2012-11-02 07:53:00
3:53 AM,62.1,60.1,93,29.99,10.0,SW,3.5,-,N/A,,Clear,220,2012-11-02 08:53:00
4:53 AM,62.1,60.1,93,29.99,7.0,WSW,3.5,-,N/A,,Clear,240,2012-11-02 09:53:00
5:06 AM,62.6,60.8,94,29.98,2.0,Calm,Calm,-,N/A,,Partly Cloudy,0,2012-11-02 10:06:00
5:13 AM,62.6,60.8,94,29.99,3.0,Calm,Calm,-,N/A,,Mostly Cloudy,0,2012-11-02 10:13:00
5:33 AM,60.8,59.0,94,29.99,3.0,Calm,Calm,-,N/A,,Scattered Clouds,0,2012-11-02 10:33:00
5:45 AM,60.8,60.8,100,29.99,0.5,Calm,Calm,-,N/A,Fog,Fog,0,2012-11-02 10:45:00
5:53 AM,62.1,62.1,100,30.00,0.5,Calm,Calm,-,N/A,Fog,Fog,0,2012-11-02 10:53:00
6:24 AM,62.6,62.6,100,30.00,1.5,Calm,Calm,-,N/A,,Overcast,0,2012-11-02 11:24:00
6:29 AM,64.4,62.6,94,30.00,3.0,Calm,Calm,-,N/A,,Overcast,0,2012-11-02 11:29:00
6:53 AM,64.0,63.0,96,30.01,3.0,Calm,Calm,-,N/A,,Overcast,0,2012-11-02 11:53:00
7:06 AM,64.4,62.6,94,30.00,1.8,Calm,Calm,-,N/A,,Overcast,0,2012-11-02 12:06:00
7:25 AM,62.6,62.6,100,30.01,2.5,Calm,Calm,-,N/A,,Overcast,0,2012-11-02 12:25:00
7:34 AM,62.6,62.6,100,30.01,3.0,Calm,Calm,-,N/A,,Overcast,0,2012-11-02 12:34:00
7:41 AM,62.6,62.6,100,30.01,1.8,Calm,Calm,-,N/A,,Overcast,0,2012-11-02 12:41:00
7:53 AM,63.0,62.1,97,30.03,0.8,Calm,Calm,-,N/A,,Overcast,0,2012-11-02 12:53:00
8:02 AM,64.4,62.6,94,30.02,3.0,Calm,Calm,-,N/A,,Overcast,0,2012-11-02 13:02:00
8:53 AM,66.0,64.0,93,30.05,9.0,SW,6.9,-,N/A,,Mostly Cloudy,230,2012-11-02 13:53:00
9:18 AM,68.0,64.4,88,30.05,10.0,WSW,6.9,-,N/A,,Scattered Clouds,250,2012-11-02 14:18:00
9:53 AM,71.1,64.0,78,30.07,10.0,West,8.1,-,N/A,,Partly Cloudy,260,2012-11-02 14:53:00
10:53 AM,75.0,64.0,69,30.07,10.0,Variable,4.6,-,N/A,,Clear,0,2012-11-02 15:53:00
11:53 AM,79.0,62.1,56,30.06,10.0,WSW,8.1,-,N/A,,Clear,250,2012-11-02 16:53:00
12:53 PM,82.0,62.1,51,30.03,10.0,WSW,8.1,-,N/A,,Clear,240,2012-11-02 17:53:00
1:53 PM,84.0,61.0,46,30.00,10.0,SSW,4.6,-,N/A,,Clear,200,2012-11-02 18:53:00
2:53 PM,84.9,59.0,41,29.99,10.0,Variable,3.5,-,N/A,,Clear,0,2012-11-02 19:53:00
3:53 PM,84.9,57.9,40,29.97,10.0,Calm,Calm,-,N/A,,Clear,0,2012-11-02 20:53:00
4:53 PM,84.9,55.9,37,29.97,10.0,SW,4.6,-,N/A,,Clear,230,2012-11-02 21:53:00
5:53 PM,82.9,55.9,39,29.97,10.0,SW,4.6,-,N/A,,Clear,220,2012-11-02 22:53:00
6:53 PM,77.0,57.9,52,29.99,10.0,South,5.8,-,N/A,,Clear,170,2012-11-02 23:53:00
7:53 PM,73.0,59.0,61,30.00,10.0,South,4.6,-,N/A,,Clear,180,2012-11-03 00:53:00
8:53 PM,71.1,59.0,66,30.01,10.0,South,6.9,-,N/A,,Clear,190,2012-11-03 01:53:00
9:53 PM,71.1,62.1,73,30.03,10.0,SSW,9.2,-,N/A,,Clear,200,2012-11-03 02:53:00
10:53 PM,70.0,62.1,76,30.04,10.0,SSW,6.9,-,N/A,,Clear,210,2012-11-03 03:53:00